Location: La Savane
(18.0962°N, 63.0646°W)
Time: 17:39:02
(UTC+00:00)

Cosmos 1980 Rocket - Pass Details

Date: 29 October 2020
Orbit: 831 x 848 km, 71.0° (Epoch: 24 November)

Event Time Altitude Azimuth Distance (km) Brightness Sun altitude
Rises 22:27:02 0° 198° (SSW) 3,386 5.8 -11.5°
Reaches altitude 10° 22:29:28 10° 199° (SSW) 2,450 5.0 -12.1°
Maximum altitude 22:35:06 83° 286° (WNW) 846 2.3 -13.4°
Drops below altitude 10° 22:40:43 10° 15° (NNE) 2,443 4.4 -14.7°
Sets 22:43:09 0° 16° (NNE) 3,375 5.1 -15.3°
